Buffalo, NY

1:27 AM EDT on August 26, 2019 (GMT -0400)
Buffalo Niagara International

Weather History for KBUF - July, 2019

Change the Weather History Date:

Sunday, July 21, 2019

  Actual Average Record
Temperature  
Mean Temperature 77 °F 71 °F  
Max Temperature 82 °F 80 °F 93 °F (1953)
Min Temperature 71 °F 63 °F 48 °F (1965)
Degree Days  
Heating Degree Days 0 0  
Month to date heating degree days 0 2  
Since 1 June heating degree days 62 66  
Since 1 July heating degree days 0 2  
Cooling Degree Days 12 7  
Month to date cooling degree days 198 136  
Year to date cooling degree days 281 265  
Since 1 June cooling degree days 273 239  
Growing Degree Days 27 (Base 50)    
Moisture  
Dew Point 66 °F    
Average Humidity 68    
Maximum Humidity 87    
Minimum Humidity 48    
Precipitation  
Precipitation T in 0.11 in 0.91 in (1878)
Month to date precipitation 1.08 2.12  
Year to date precipitation 24.00 20.79  
Snow  
Snow 0.00 in 0.00 in 0.00 in ()
Month to date snowfall 0.0 0.0  
Since 1 June snowfall 0.0 0.0  
Since 1 July snowfall 0.0 0.0  
Snow Depth 0.00 in    
Sea Level Pressure  
Sea Level Pressure 29.87 in    
Wind  
Wind Speed 10 mph (WSW)    
Max Wind Speed 17 mph    
Max Gust Speed 21 mph    
Visibility 10 miles    
Events Rain    
T = Trace of Precipitation, MM = Missing Value Source: NWS Daily Summary

Daily Weather History Graph

Daily Weather History Graph

Search for Another Location

Airport or City:

Astronomy

Jul. 21, 2019 Rise Set
Actual Time 5:54 AM EDT 8:47 PM EDT
Civil Twilight 5:21 AM EDT 9:20 PM EDT
Nautical Twilight 4:38 AM EDT 10:02 PM EDT
Astronomical Twilight 3:49 AM EDT 10:52 PM EDT
Moon 11:35 PM EDT (7/21) 10:18 AM EDT (7/21)
Length of Visible Light 15h 59m
Length of Day
14h 52m
Waning Gibbous, 80% of the Moon is Illuminated
Jul 21
Waning Gibbous
Jul 24
Last Quarter
Jul 31
New
Aug 7
First Quarter
Aug 15
Full

Hourly Weather History & Observations

Time (EDT) Temp. Heat Index Dew Point Humidity Pressure Visibility Wind Dir Wind Speed Gust Speed Precip Events Conditions
12:54 AM 75.9 °F - 69.1 °F 79% 29.77 in 10.0 mi SSW 10.4 mph - 0.00 in Rain Light Rain
1:54 AM 75.0 °F - 68.0 °F 79% 29.78 in 10.0 mi SW 9.2 mph - 0.00 in   Overcast
2:54 AM 75.9 °F - 68.0 °F 76% 29.81 in 10.0 mi SW 11.5 mph - N/A   Overcast
3:54 AM 75.0 °F - 69.1 °F 82% 29.82 in 10.0 mi West 11.5 mph - N/A   Scattered Clouds
4:54 AM 73.9 °F - 68.0 °F 82% 29.83 in 10.0 mi WSW 9.2 mph - N/A   Partly Cloudy
5:54 AM 73.9 °F - 68.0 °F 82% 29.83 in 10.0 mi WSW 5.8 mph - N/A   Mostly Cloudy
6:54 AM 73.9 °F - 70.0 °F 87% 29.85 in 10.0 mi WSW 8.1 mph - N/A   Scattered Clouds
7:04 AM 73.9 °F - 70.0 °F 87% 29.87 in 10.0 mi WSW 9.2 mph - N/A   Scattered Clouds
7:26 AM 75.0 °F - 70.0 °F 84% 29.88 in 10.0 mi WSW 8.1 mph - N/A   Mostly Cloudy
7:41 AM 75.9 °F - 70.0 °F 82% 29.87 in 10.0 mi WSW 10.4 mph - N/A   Scattered Clouds
7:54 AM 75.9 °F - 69.1 °F 79% 29.86 in 10.0 mi West 10.4 mph - N/A   Mostly Cloudy
8:32 AM 75.0 °F - 68.0 °F 79% 29.88 in 10.0 mi West 11.5 mph - N/A   Mostly Cloudy
8:54 AM 75.0 °F - 68.0 °F 79% 29.87 in 10.0 mi WNW 10.4 mph - N/A   Mostly Cloudy
9:54 AM 77.0 °F - 66.9 °F 71% 29.88 in 10.0 mi West 9.2 mph - N/A   Scattered Clouds
10:17 AM 77.0 °F - 66.9 °F 71% 29.88 in 10.0 mi WNW 10.4 mph - N/A   Mostly Cloudy
10:54 AM 75.9 °F - 66.9 °F 74% 29.87 in 10.0 mi West 10.4 mph - N/A   Mostly Cloudy
11:54 AM 75.9 °F - 68.0 °F 76% 29.89 in 10.0 mi WSW 11.5 mph - N/A   Mostly Cloudy
12:19 PM 77.0 °F - 69.1 °F 76% 29.91 in 10.0 mi WSW 11.5 mph - N/A   Mostly Cloudy
12:54 PM 77.0 °F - 69.1 °F 76% 29.90 in 10.0 mi WSW 11.5 mph - N/A   Mostly Cloudy
1:54 PM 78.1 °F - 69.1 °F 74% 29.90 in 10.0 mi WSW 13.8 mph - N/A   Mostly Cloudy
2:54 PM 80.1 °F 82.3 °F 66.9 °F 64% 29.89 in 10.0 mi WSW 11.5 mph - N/A   Mostly Cloudy
3:54 PM 80.1 °F 82.1 °F 66.0 °F 62% 29.88 in 10.0 mi SW 15.0 mph - N/A   Mostly Cloudy
4:54 PM 80.1 °F 81.1 °F 61.0 °F 52% 29.90 in 10.0 mi WSW 11.5 mph - N/A   Mostly Cloudy
5:54 PM 80.1 °F 81.1 °F 61.0 °F 52% 29.88 in 10.0 mi SW 9.2 mph - N/A   Scattered Clouds
6:54 PM 78.1 °F - 57.9 °F 50% 29.90 in 10.0 mi SW 10.4 mph - N/A   Mostly Cloudy
7:54 PM 77.0 °F - 60.1 °F 56% 29.91 in 10.0 mi SW 11.5 mph - N/A   Scattered Clouds
8:54 PM 73.9 °F - 63.0 °F 68% 29.91 in 10.0 mi SW 8.1 mph - N/A   Scattered Clouds
9:54 PM 73.0 °F - 64.0 °F 73% 29.91 in 10.0 mi SW 8.1 mph - N/A   Scattered Clouds
10:54 PM 72.0 °F - 63.0 °F 73% 29.91 in 10.0 mi SW 6.9 mph - N/A   Partly Cloudy
11:54 PM 71.1 °F - 61.0 °F 70% 29.90 in 10.0 mi West 4.6 mph - N/A   Partly Cloudy